EXS61M EGKK-LEPA

Flight info

Callsign EXS61M
Flight time N/A
Altitude 35000
Route BOGNA L612 BENBO Y47 DRAKE L151 SITET UN859 SOPIL DCT BALAN DCT EVPOK DCT NARAK DCT GAI DCT LOMRA DCT ROCAN DCT IBRAP DCT LUKEV N13 LORES
Aircraft A21N/M-SDE3FGHIRWY/LB1

Departure

Time 2026-04-16 21:15
Airport London Gatwick Airport (EGKK)

Arrival

Time N/A
Airport Palma de Mallorca Airport (LEPA)
Time Latitude Longitude Altitude Speed Heading
2026-04-16 20:27 51.15867 -0.17373 199 ft 0 kts 347°
2026-04-16 21:04 51.15860 -0.17370 199 ft 2 kts 347°
2026-04-16 21:04 51.15845 -0.17365 199 ft 2 kts 347°
2026-04-16 21:04 51.15836 -0.17362 199 ft 2 kts 348°
2026-04-16 21:04 51.15822 -0.17354 199 ft 2 kts 327°
2026-04-16 21:05 51.15810 -0.17339 199 ft 2 kts 313°
2026-04-16 21:05 51.15801 -0.17320 199 ft 2 kts 297°
2026-04-16 21:05 51.15796 -0.17297 199 ft 2 kts 281°
2026-04-16 21:05 51.15795 -0.17273 199 ft 2 kts 265°
2026-04-16 21:06 51.15796 -0.17261 199 ft 1 kts 256°
2026-04-16 21:06 51.15797 -0.17255 199 ft 0 kts 258°
2026-04-16 21:08 51.15790 -0.17302 199 ft 9 kts 258°
2026-04-16 21:08 51.15743 -0.17378 199 ft 11 kts 186°
2026-04-16 21:08 51.15699 -0.17367 199 ft 0 kts 166°
2026-04-16 21:10 51.15676 -0.17357 199 ft 6 kts 166°
2026-04-16 21:10 51.15613 -0.17334 199 ft 11 kts 168°
2026-04-16 21:10 51.15521 -0.17304 199 ft 14 kts 168°
2026-04-16 21:10 51.15427 -0.17271 199 ft 13 kts 167°
2026-04-16 21:11 51.15402 -0.17262 199 ft 1 kts 167°
2026-04-16 21:11 51.15391 -0.17258 199 ft 2 kts 167°
2026-04-16 21:11 51.15374 -0.17252 199 ft 3 kts 168°
2026-04-16 21:11 51.15344 -0.17243 199 ft 5 kts 171°
2026-04-16 21:12 51.15290 -0.17224 199 ft 9 kts 159°
2026-04-16 21:12 51.15222 -0.17162 199 ft 12 kts 139°
2026-04-16 21:12 51.15206 -0.17019 199 ft 14 kts 82°
2026-04-16 21:12 51.15216 -0.16939 199 ft 0 kts 79°
2026-04-16 21:13 51.15216 -0.16938 199 ft 1 kts 79°
2026-04-16 21:13 51.15216 -0.16860 199 ft 12 kts 105°
2026-04-16 21:13 51.15139 -0.16809 199 ft 11 kts 212°
2026-04-16 21:13 51.15111 -0.16885 199 ft 0 kts 256°
2026-04-16 21:14 51.15078 -0.17121 199 ft 56 kts 258°
2026-04-16 21:14 51.14938 -0.18136 199 ft 127 kts 258°
2026-04-16 21:14 51.14716 -0.19816 265 ft 176 kts 256°
2026-04-16 21:15 51.14468 -0.21800 702 ft 192 kts 257°
2026-04-16 21:15 51.14197 -0.23908 1476 ft 198 kts 254°
2026-04-16 21:15 51.13900 -0.25941 2477 ft 191 kts 254°
2026-04-16 21:15 51.13589 -0.28053 2869 ft 204 kts 254°
2026-04-16 21:16 51.13264 -0.30308 3040 ft 211 kts 254°
2026-04-16 21:16 51.12938 -0.32599 3297 ft 213 kts 254°
2026-04-16 21:16 51.12610 -0.34916 3551 ft 214 kts 254°
2026-04-16 21:16 51.12281 -0.37229 3806 ft 214 kts 255°
2026-04-16 21:17 51.11903 -0.39507 4051 ft 213 kts 243°
2026-04-16 21:17 51.10965 -0.41246 4294 ft 212 kts 212°
2026-04-16 21:17 51.09561 -0.41991 4551 ft 217 kts 185°
2026-04-16 21:17 51.08015 -0.41859 4842 ft 227 kts 179°
2026-04-16 21:18 51.06378 -0.41652 5109 ft 245 kts 179°
2026-04-16 21:18 51.04659 -0.41429 5360 ft 253 kts 179°
2026-04-16 21:18 51.02904 -0.41200 5616 ft 254 kts 179°
2026-04-16 21:18 51.01135 -0.40973 5869 ft 255 kts 179°
2026-04-16 21:19 50.99345 -0.40745 5971 ft 257 kts 179°
2026-04-16 21:19 50.97532 -0.40523 6197 ft 265 kts 179°
2026-04-16 21:19 50.95690 -0.40293 7101 ft 265 kts 179°
2026-04-16 21:19 50.93896 -0.40061 8019 ft 263 kts 179°
2026-04-16 21:20 50.92979 -0.39943 8424 ft 265 kts 179°
2026-04-16 21:20 50.91157 -0.39712 9173 ft 269 kts 179°
2026-04-16 21:20 50.89260 -0.39473 9937 ft 273 kts 179°
2026-04-16 21:20 50.87385 -0.39237 10662 ft 276 kts 179°
2026-04-16 21:21 50.85447 -0.38988 11418 ft 279 kts 179°
2026-04-16 21:21 50.83532 -0.38442 12109 ft 286 kts 166°
2026-04-16 21:21 50.81701 -0.37110 12797 ft 294 kts 154°
2026-04-16 21:21 50.79989 -0.35378 13437 ft 298 kts 152°
2026-04-16 21:22 50.78254 -0.33551 14118 ft 301 kts 152°
2026-04-16 21:22 50.76504 -0.31713 14758 ft 305 kts 152°
2026-04-16 21:22 50.74737 -0.29873 15378 ft 309 kts 152°
2026-04-16 21:22 50.72927 -0.27994 16014 ft 313 kts 152°
2026-04-16 21:23 50.71090 -0.26094 16649 ft 317 kts 152°
2026-04-16 21:23 50.69250 -0.24185 17225 ft 323 kts 152°
2026-04-16 21:23 50.67948 -0.22824 17441 ft 332 kts 151°
2026-04-16 21:23 50.65970 -0.20753 17712 ft 347 kts 151°
2026-04-16 21:24 50.63918 -0.18603 17980 ft 362 kts 150°
2026-04-16 21:24 50.61785 -0.16368 18236 ft 376 kts 150°
2026-04-16 21:24 50.59558 -0.14035 18495 ft 390 kts 150°
2026-04-16 21:24 50.57294 -0.11664 18937 ft 397 kts 150°
2026-04-16 21:25 50.54979 -0.09240 19512 ft 400 kts 150°
2026-04-16 21:25 50.52661 -0.06820 20069 ft 403 kts 150°
2026-04-16 21:25 50.50322 -0.04382 20596 ft 407 kts 150°
2026-04-16 21:25 50.47951 -0.01952 21107 ft 409 kts 153°
2026-04-16 21:26 50.45347 -0.00288 21561 ft 403 kts 171°